Flag for Norway Weather past 2 weeks in Kirkenes, Norway

Now
40 °F

Chilly.


Feels Like: 33 °F
Forecast: 27 / 33 °F
Wind: 9 mph from Southwest

Location: Kirkenes Lufthavn


UV Index: 0 (Low)

Visibility: N/A


Pressure: 29.38 "Hg

Humidity: 72%

Dew point: 31 °F

Location of KirkenesLocation

Historic Weather in Kirkenes

°F

Kirkenes temperature yesterday

Maximum temperature yesterday: 36 °F (at 7:00 PM)
Minimum temperature yesterday: 31 °F (at 2:00 AM)
Average temperature yesterday: 34 °F

Past Weeks' High & Low Weather Summary

 TemperatureHumidityPressure
High40 °F (Apr 12, 3:00 PM)98% (Apr 13, 7:00 AM)30.25 "Hg (Apr 13, 7:00 AM)
Low11 °F (Apr 9, 6:00 AM)52% (Apr 10, 3:00 PM)29.03 "Hg (Apr 5, 4:00 AM)
Average29 °F78%29.61 "Hg
* Reported Apr 2 11:00 AM — Apr 17 11:00 AM, Kirkenes, Weather by CustomWeather, © 2014

Note: Actual official high and low records may vary slightly from our data, if they occured in-between our weather recording intervals... More about our weather records

Advertising

Historic Weather Conditions — Data for Previous 24 hours

 ConditionsComfort  
Time TempWeatherWind HumidityBarometerVisibility
11:00 AM
Apr 17
40 °FChilly.9 mph72%29.38 "HgN/A
10:00 AM39 °FChilly.9 mph75%29.38 "HgN/A
9:00 AM38 °FChilly.9 mph77%29.38 "HgN/A
8:00 AM38 °FChilly.8 mph77%29.41 "HgN/A
7:00 AM37 °FChilly.10 mph79%29.41 "HgN/A
6:00 AM36 °FChilly.10 mph81%29.41 "HgN/A
5:00 AM36 °FChilly.13 mph82%29.41 "HgN/A
4:00 AM35 °FChilly.9 mph81%29.44 "HgN/A
3:00 AM35 °FChilly.10 mph81%29.47 "HgN/A
2:00 AM35 °FChilly.9 mph78%29.50 "HgN/A
1:00 AM35 °FChilly.9 mph77%29.54 "HgN/A
12:00 AM35 °FChilly.10 mph71%29.56 "HgN/A
11:00 PM
Apr 16
35 °FChilly.10 mph71%29.57 "HgN/A
10:00 PM35 °FChilly.12 mph70%29.61 "HgN/A
9:00 PM36 °FChilly.12 mph63%29.65 "HgN/A
8:00 PM36 °FChilly.10 mph60%29.69 "HgN/A
7:00 PM36 °FChilly.12 mph59%29.72 "HgN/A
6:00 PM35 °FChilly.8 mph66%29.75 "HgN/A
5:00 PM35 °FChilly.7 mph67%29.80 "HgN/A
4:00 PM35 °FChilly.8 mph62%29.83 "HgN/A
3:00 PM35 °FChilly.6 mph64%29.86 "HgN/A
2:00 PM34 °FChilly.7 mph61%29.89 "HgN/A
1:00 PM34 °FChilly.7 mph60%29.93 "HgN/A
12:00 PM33 °FChilly.6 mph61%29.95 "HgN/A
Weather by CustomWeather, © 2014

See weather overview